Simultaneous Nadir Overpasses (SNOs) Predictions

Prediction of SNOs between AQUA and METOP-A Satellite Orbit:

Table of predicted SNOs for the next 14.0 days since TLE Epoch: 3/9/2013
Index Date (AQUA) Time (AQUA) Lat,Lon (AQUA) SZA (AQUA ) Date (METOP-A) Time (METOP-A) Lat,Lon (METOP-A) SZA (METOP-A ) Distance(km) Time Diff (sec)
1 03/09/2013 19:01:18 73.63,-110.70 77.91 03/09/2013 19:00:08 73.57,-111.97 77.92 40.27 70
2 03/09/2013 19:50:50 -73.97, 56.19 101.74 03/09/2013 19:50:42 -73.97, 56.30 101.74 3.32 8
3 03/09/2013 20:40:18 73.99,-136.21 78.27 03/09/2013 20:41:21 74.00,-136.31 78.27 3.05 63
4 03/12/2013 14:35:36 73.74, -44.50 76.92 03/12/2013 14:34:24 73.73, -45.20 76.95 21.71 72
5 03/12/2013 15:25:06 -73.98, 122.62 102.85 03/12/2013 15:25:01 -73.98, 122.72 102.85 3.26 5
6 03/12/2013 16:14:34 74.00, -69.79 77.16 03/12/2013 16:15:40 74.00, -69.88 77.16 2.89 66
7 03/15/2013 10:09:54 73.89, 21.62 75.95 03/15/2013 10:08:41 73.83, 21.44 75.92 8.65 73
8 03/15/2013 10:59:21 -73.96,-170.91 103.98 03/15/2013 10:59:20 -73.98,-170.87 103.97 2.05 1
9 03/15/2013 11:48:50 74.04, -3.44 76.09 03/15/2013 11:49:58 74.05, -3.36 76.09 2.88 68
10 03/18/2013 05:44:08 73.91, 88.02 74.86 03/18/2013 05:42:57 73.92, 88.07 74.88 2.04 71
11 03/18/2013 06:33:35 -73.98,-104.50 105.08 03/18/2013 06:33:38 -73.97,-104.47 105.09 1.51 3
12 03/18/2013 07:23:04 74.06, 62.95 75.00 03/18/2013 07:24:16 74.04, 63.03 74.96 3.22 72
13 03/21/2013 01:18:22 73.91, 154.46 73.74 03/21/2013 01:17:16 73.90, 154.45 73.75 0.66 66
14 03/21/2013 02:07:49 -73.98, -38.05 106.20 03/21/2013 02:07:57 -73.96, -38.09 106.22 2.64 8




NCC Satellite Simultaneous Nadir Overpasses (SNOs) Prediction Service
